Regional Weather Roundup
Issued by NWS

Home | Current Version | Previous Version | Text Only | Print | Product List | Glossary On
Versions: 1 2 3 4 5 6 7 8 9 10 11 12 13 14 15 16 17 18 19 20 21 22 23 24 25 26 27 28 29 30 31 32 33 34 35 36 37 38 39 40 41 42 43 44 45 46 47 48 49 50
000
ASUS43 KLMK 012102
RWRKY
KENTUCKY REGIONAL WEATHER ROUNDUP
NATIONAL WEATHER SERVICE LOUISVILLE KY
400 PM EST SUN MAR 01 2015

NOTE "FAIR" INDICATES FEW OR NO CLOUDS BELOW 12,000 FEET
WITH NO SIGNIFICANT WEATHER AND/OR OBSTRUCTIONS TO VISIBILITY.

KYZ001>023-026-027-061>063-070>075-012200-
WESTERN AND SOUTH CENTRAL KENTUCKY

CITY           SKY/WX    TMP DP  RH WIND       PRES   REMARKS
PADUCAH        CLOUDY    39  31  72 NW5       30.33R
HENDERSON      CLOUDY    36  28  75 NW8       30.34R WCI  29
OWENSBORO      CLOUDY    38  33  82 NW7       30.33R WCI  33
HOPKINSVILLE   CLOUDY    47  46  96 W7        30.30S
BOWLING GREEN  CLOUDY    49  45  86 SW8       30.30F FOG
GLASGOW        NOT AVBL
$$

KYZ024-025-028>034-038-045-046-053-012200-
NORTH CENTRAL KENTUCKY

CITY           SKY/WX    TMP DP  RH WIND       PRES   REMARKS
LOUISVILLE/SDF CLOUDY    41  38  89 W6        30.28S FOG
LOUISVILLE/LOU CLOUDY    40  37  89 NW6       30.28F FOG
FORT KNOX      FOG       42  41  96 W8        30.26S VSB 1/4
$$

KYZ035>037-039>044-047>052-055>060-089>105-012200-
NORTHEAST KENTUCKY

CITY           SKY/WX    TMP DP  RH WIND       PRES   REMARKS
LEXINGTON      CLOUDY    40  39  97 SW12      30.27S FOG     WCI  33
COVINGTON      CLOUDY    34  31  88 W3        30.26S FOG
FRANKFORT      CLOUDY    41  39  93 SW9       30.26S FOG
$$

KYZ054-064>069-076>088-106>120-012200-
SOUTHEAST KENTUCKY

CITY           SKY/WX    TMP DP  RH WIND       PRES   REMARKS
JACKSON        LGT RAIN  40  39  97 SW5       30.28F FOG
LONDON         CLOUDY    48  42  80 S5        30.30S
SOMERSET       NOT AVBL
MIDDLESBORO    NOT AVBL
MONTICELLO     CLOUDY    50  49  96 SW6       30.33S FOG
$$



USA.gov is the U.S. government's official web portal to all federal, state and local government web resources and services.